Home > Weather > Leirvik > Past weeks

Flag for Norway Past Weather in Leirvik, Norway — Yesterday and Last 2 Weeks

Now
63 °F

Thundershowers. Fog.


Feels Like: 63 °F
Forecast: 58 / 64 °F
Wind: 17 mph from Southwest

Location: Stord / Soerstokken

Current Time: Aug 24, 2016 at 4:01:34 PM

Latest Report: Aug 24, 2016 at 3:20 PM


Visibility: 1 mi

Pressure: 30.09 "Hg

Humidity: 94%

Dew Point: 61 °F

Location of LeirvikLocation

Past Weather in Leirvik — Graph

°F

Leirvik Temperature Yesterday

Maximum temperature yesterday: 68 °F (at 5:20 PM)
Minimum temperature yesterday: 55 °F (at 4:50 AM)
Average temperature yesterday: 61 °F

High & Low Weather Summary for the Past Weeks

 TemperatureHumidityPressure
High73 °F (Aug 21, 3:50 PM)100% (Aug 12, 9:20 AM)30.27 "Hg (Aug 12, 9:20 AM)
Low45 °F (Aug 11, 5:50 AM)44% (Aug 21, 3:50 PM)29.65 "Hg (Aug 12, 5:50 PM)
Average58 °F82%30.02 "Hg
* Reported Aug 9 2:20 PM — Aug 24 2:50 PM, Leirvik, Weather by CustomWeather, © 2016

Note: Actual official high and low records may vary slightly from our data, if they occured in-between our weather recording intervals... More about our weather records

Advertising

Leirvik Weather History for the Previous 24 Hours

Scroll right to see more
 ConditionsComfort  
Time TempWeatherWind HumidityBarometerVisibility
2:50 PM
Wed, Aug 24
63 °FMild.N/A94%30.09 "HgN/A
2:20 PM63 °FStrong thunderstorms. Broken clouds.8 mph94%30.09 "Hg2 mi
1:20 PM63 °FStrong thunderstorms. Partly sunny.23 mph88%30.07 "Hg2 mi
12:50 PM66 °FThundershowers. Partly sunny.9 mph73%30.07 "HgN/A
12:20 PM66 °FThunderstorms. Broken clouds.16 mph73%30.07 "HgN/A
11:50 AM64 °FPartly sunny.8 mph78%30.09 "HgN/A
11:20 AM63 °FBroken clouds.9 mph83%30.09 "HgN/A
10:50 AM63 °FBroken clouds.13 mph77%30.09 "HgN/A
10:20 AM63 °FPartly sunny.13 mph77%30.12 "HgN/A
8:50 AM61 °FLight rain. Broken clouds.12 mph83%30.15 "HgN/A
8:20 AM61 °FBroken clouds.14 mph83%30.15 "HgN/A
7:50 AM61 °FBroken clouds.12 mph77%30.15 "HgN/A
7:20 AM59 °FBroken clouds.8 mph82%30.15 "HgN/A
6:50 AM59 °FPassing clouds.8 mph82%30.18 "HgN/A
6:20 AM59 °FPassing clouds.9 mph82%30.18 "HgN/A
5:50 AM59 °FPassing clouds.12 mph82%30.18 "HgN/A
8:50 PM
Tue, Aug 23
61 °FBroken clouds.No wind83%30.21 "HgN/A
7:50 PM61 °FPartly sunny.3 mph88%30.24 "HgN/A
7:20 PM61 °FScattered clouds.3 mph88%30.21 "HgN/A
5:50 PM66 °FScattered clouds.2 mph73%30.21 "HgN/A
5:20 PM68 °FPassing clouds.2 mph69%30.21 "HgN/A
4:50 PM66 °FPassing clouds.3 mph73%30.21 "HgN/A
4:20 PM64 °FScattered clouds.3 mph78%30.21 "HgN/A
Weather by CustomWeather, © 2016

See weather overviewHow to use our weather pages